EW6092 Weather Reports


Display with metric or nautical units.
time (UTC)temp
F
wind
direction
speed
MPH
gust
MPH
rain 1hr
in
rain 24hr
in
rain mn
in
humidity
%
barometer
mb
20210515090357 65 82 0.0 0.0 0.00 0.00 0.00 94 1017.5
20210515085832 65 82 0.0 0.0 0.00 0.00 0.00 94 1017.5
20210515085332 65 82 0.0 0.0 0.00 0.00 0.00 94 1017.5
20210515084812 65 82 0.0 0.0 0.00 0.00 0.00 94 1017.5
20210515084309 65 82 0.0 0.0 0.00 0.00 0.00 93 1017.5
20210515083745 65 82 0.0 0.0 0.00 0.00 0.00 93 1017.6
20210515083238 65 82 0.0 0.0 0.00 0.00 0.00 93 1017.7
20210515082720 65 82 0.0 0.0 0.00 0.00 0.00 93 1017.7
20210515082220 65 82 0.0 0.0 0.00 0.00 0.00 93 1017.8
20210515081720 65 82 0.0 0.0 0.00 0.00 0.00 93 1017.8
20210515081219 65 82 0.0 0.0 0.00 0.00 0.00 93 1017.8
20210515080702 65 82 0.0 0.0 0.00 0.00 0.00 93 1017.9
20210515080159 65 82 0.0 0.0 0.00 0.00 0.00 93 1017.8
20210515075644 65 82 0.0 0.0 0.00 0.00 0.00 93 1017.9
20210515075141 65 82 0.0 3.0 0.00 0.00 0.00 92 1018.0
20210515074631 66 82 0.0 3.0 0.00 0.00 0.00 92 1018.1
20210515074129 66 82 1.0 4.0 0.00 0.00 0.00 92 1018.2
20210515073629 66 82 2.0 4.0 0.00 0.00 0.00 92 1018.2
20210515073128 66 82 2.0 4.0 0.00 0.00 0.00 92 1018.3
20210515072606 66 82 2.0 4.0 0.00 0.00 0.00 92 1018.3
20210515072106 66 82 1.0 4.0 0.00 0.00 0.00 92 1018.5
20210515071548 66 82 1.0 3.0 0.00 0.00 0.00 92 1018.5
20210515071029 66 82 1.0 3.0 0.00 0.00 0.00 91 1018.4
20210515070531 66 82 2.0 4.0 0.00 0.00 0.00 91 1018.5
20210515070028 66 82 2.0 4.0 0.00 0.00 0.00 91 1018.5
20210515065529 66 82 2.0 6.0 0.00 0.00 0.00 91 1018.6
20210515065006 67 82 2.0 6.0 0.00 0.00 0.00 91 1018.7
20210515064441 67 84 3.0 7.0 0.00 0.00 0.00 91 1018.7
20210515063928 67 83 3.0 7.0 0.00 0.00 0.00 91 1018.7
20210515063403 67 83 4.0 7.0 0.00 0.00 0.00 90 1018.8
20210515062901 67 90 3.0 7.0 0.00 0.00 0.00 90 1018.9
20210515062334 67 104 2.0 3.0 0.00 0.00 0.00 90 1018.9
20210515061806 67 104 1.0 4.0 0.00 0.00 0.00 90 1019.0
20210515061303 67 104 0.0 4.0 0.00 0.00 0.00 90 1019.0
20210515060737 67 109 0.0 0.0 0.00 0.00 0.00 90 1018.9
20210515060211 67 109 0.0 0.0 0.00 0.00 0.00 90 1019.0
20210515055650 67 109 0.0 0.0 0.00 0.00 0.00 89 1019.1
20210515055119 67 109 0.0 0.0 0.00 0.00 0.00 89 1019.1
20210515054552 67 109 0.0 0.0 0.00 0.00 0.00 89 1019.1
20210515054027 67 109 0.0 0.0 0.00 0.00 0.00 89 1019.0
20210515053500 67 109 0.0 0.0 0.00 0.00 0.00 89 1019.0
20210515052958 67 108 0.0 0.0 0.00 0.00 0.00 89 1018.9
20210515052432 67 109 0.0 6.0 0.00 0.00 0.00 89 1018.8
20210515051905 68 109 2.0 6.0 0.00 0.00 0.00 88 1018.8
20210515051338 68 109 2.0 6.0 0.00 0.00 0.00 88 1018.8
20210515050835 68 107 2.0 6.0 0.00 0.00 0.00 88 1018.8
20210515050323 68 96 2.0 4.0 0.00 0.00 0.00 88 1018.8
20210515045821 68 96 2.0 6.0 0.00 0.00 0.00 88 1019.0
20210515045255 68 96 2.0 6.0 0.00 0.00 0.00 88 1019.0
20210515044728 68 96 3.0 8.0 0.00 0.00 0.00 88 1019.0
20210515044206 68 92 4.0 8.0 0.00 0.00 0.00 88 1019.0
20210515043709 68 103 4.0 8.0 0.00 0.00 0.00 88 1019.0
20210515043206 68 91 3.0 8.0 0.00 0.00 0.00 87 1019.0
20210515042649 68 98 3.0 8.0 0.00 0.00 0.00 87 1019.1
20210515042147 68 100 4.0 8.0 0.00 0.00 0.00 87 1019.1
20210515041647 68 94 4.0 8.0 0.00 0.00 0.00 87 1019.1
20210515041125 69 96 3.0 8.0 0.00 0.00 0.00 87 1019.2
20210515040625 69 104 3.0 7.0 0.00 0.00 0.00 87 1019.2
20210515040104 69 96 3.0 7.0 0.00 0.00 0.00 87 1019.2
20210515035601 69 119 3.0 7.0 0.00 0.00 0.00 86 1019.2
20210515035037 69 88 4.0 9.0 0.00 0.00 0.00 86 1019.2
20210515034530 69 90 3.0 9.0 0.00 0.00 0.00 86 1019.1
20210515034005 69 93 4.0 9.0 0.00 0.00 0.00 86 1019.3
20210515033439 69 119 4.0 9.0 0.00 0.00 0.00 86 1019.2
20210515032919 70 108 3.0 7.0 0.00 0.00 0.00 85 1019.2
20210515032357 70 125 4.0 7.0 0.00 0.00 0.00 85 1019.2
20210515031858 70 119 4.0 8.0 0.00 0.00 0.00 85 1019.2
20210515031401 70 122 4.0 8.0 0.00 0.00 0.00 85 1019.2
20210515030830 70 118 3.0 8.0 0.00 0.00 0.00 85 1019.1
20210515030331 70 117 3.0 8.0 0.00 0.00 0.00 84 1019.2
20210515025808 70 105 4.0 8.0 0.00 0.00 0.00 84 1019.2
20210515025306 71 105 4.0 8.0 0.00 0.00 0.00 84 1019.2
20210515024802 71 107 4.0 9.0 0.00 0.00 0.00 84 1019.1
20210515024237 71 108 4.0 9.0 0.00 0.00 0.00 83 1019.0
20210515023735 71 105 5.0 9.0 0.00 0.00 0.00 83 1019.0
20210515023205 71 128 5.0 9.0 0.00 0.00 0.00 83 1019.0
20210515022703 71 123 5.0 10.0 0.00 0.00 0.00 83 1018.9
20210515022136 71 115 5.0 10.0 0.00 0.00 0.00 82 1018.8
20210515021610 72 120 5.0 12.0 0.00 0.00 0.00 82 1018.8
20210515021108 72 90 5.0 12.0 0.00 0.00 0.00 81 1018.8
20210515020606 72 108 7.0 12.0 0.00 0.00 0.00 81 1018.8
20210515020039 72 92 7.0 12.0 0.00 0.00 0.00 81 1018.8
20210515015537 72 101 7.0 12.0 0.00 0.00 0.00 81 1018.8
20210515015032 72 102 7.0 12.0 0.00 0.00 0.00 81 1018.8
20210515014507 72 101 6.0 12.0 0.00 0.00 0.00 81 1018.7
20210515014002 73 99 5.0 12.0 0.00 0.00 0.00 80 1018.6
20210515013459 73 107 5.0 10.0 0.00 0.00 0.00 80 1018.6
20210515012955 73 109 6.0 11.0 0.00 0.00 0.00 79 1018.5
20210515012430 73 101 6.0 11.0 0.00 0.00 0.00 79 1018.4
20210515011923 74 123 7.0 11.0 0.00 0.00 0.00 78 1018.5
20210515011420 74 125 7.0 13.0 0.00 0.00 0.00 78 1018.5
20210515010916 74 117 7.0 13.0 0.00 0.00 0.00 78 1018.4
20210515010350 74 129 7.0 11.0 0.00 0.00 0.00 77 1018.3
20210515005846 75 90 7.0 12.0 0.00 0.00 0.00 77 1018.3
20210515005320 75 130 7.0 13.0 0.00 0.00 0.00 76 1018.3
20210515004754 75 112 8.0 15.0 0.00 0.00 0.00 75 1018.3
20210515004256 75 106 7.0 15.0 0.00 0.00 0.00 75 1018.3
20210515003724 76 151 8.0 16.0 0.00 0.00 0.00 75 1018.3
20210515003220 76 94 10.0 17.0 0.00 0.00 0.00 74 1018.3
20210515002715 76 114 9.0 17.0 0.00 0.00 0.00 73 1018.3
20210515002148 76 130 8.0 15.0 0.00 0.00 0.00 73 1018.2
20210515001621 76 90 9.0 15.0 0.00 0.00 0.00 73 1018.3
20210515001055 77 83 10.0 17.0 0.00 0.00 0.00 73 1018.3
20210515000527 77 139 11.0 19.0 0.00 0.00 0.00 72 1018.3
20210515000023 77 132 10.0 19.0 0.00 0.00 0.00 71 1018.3
20210514235457 78 117 10.0 17.0 0.00 0.00 0.00 72 1018.3
20210514234931 78 134 9.0 18.0 0.00 0.00 0.00 71 1018.3
20210514234430 78 109 10.0 18.0 0.00 0.00 0.00 71 1018.5
20210514233859 78 74 10.0 16.0 0.00 0.00 0.00 70 1018.5
20210514233334 78 137 10.0 19.0 0.00 0.00 0.00 70 1018.5
20210514232830 78 137 9.0 19.0 0.00 0.00 0.00 71 1018.5
20210514232324 78 119 10.0 19.0 0.00 0.00 0.00 71 1018.5
20210514231821 78 85 10.0 19.0 0.00 0.00 0.00 71 1018.5
20210514231318 79 119 10.0 16.0 0.00 0.00 0.00 71 1018.5
20210514230752 79 126 10.0 16.0 0.00 0.00 0.00 70 1018.4
20210514230248 79 111 9.0 16.0 0.00 0.00 0.00 70 1018.4
20210514225724 79 113 9.0 16.0 0.00 0.00 0.00 70 1018.4
20210514225155 78 89 9.0 15.0 0.00 0.00 0.00 71 1018.5
20210514224652 79 117 9.0 16.0 0.00 0.00 0.00 70 1018.5
20210514224125 79 97 8.0 16.0 0.00 0.00 0.00 70 1018.5
20210514223600 79 105 7.0 13.0 0.00 0.00 0.00 71 1018.5
20210514223055 79 98 6.0 13.0 0.00 0.00 0.00 70 1018.6
20210514222534 79 95 7.0 15.0 0.00 0.00 0.00 71 1018.6
20210514221959 79 125 8.0 15.0 0.00 0.00 0.00 70 1018.7
20210514221433 79 105 10.0 18.0 0.00 0.00 0.00 70 1018.6
20210514220930 79 101 10.0 18.0 0.00 0.00 0.00 69 1018.6
20210514220417 80 77 8.0 17.0 0.00 0.00 0.00 69 1018.7
20210514215914 80 107 8.0 16.0 0.00 0.00 0.00 69 1018.6
20210514215415 80 134 9.0 17.0 0.00 0.00 0.00 70 1018.7
20210514214914 80 78 8.0 17.0 0.00 0.00 0.00 69 1018.8
20210514214409 79 99 8.0 13.0 0.00 0.00 0.00 71 1018.8
20210514213906 79 103 8.0 13.0 0.00 0.00 0.00 71 1018.9
20210514213339 79 119 8.0 14.0 0.00 0.00 0.00 71 1019.0
20210514212818 79 109 7.0 14.0 0.00 0.00 0.00 70 1019.0
20210514212243 79 119 7.0 14.0 0.00 0.00 0.00 70 1019.0
20210514211748 79 111 8.0 14.0 0.00 0.00 0.00 70 1019.1
20210514211245 79 123 9.0 20.0 0.00 0.00 0.00 69 1019.1
20210514210739 80 113 10.0 20.0 0.00 0.00 0.00 68 1019.1
20210514210238 80 142 9.0 19.0 0.00 0.00 0.00 69 1019.2
20210514205734 80 150 10.0 16.0 0.00 0.00 0.00 70 1019.2
20210514205215 79 87 9.0 15.0 0.00 0.00 0.00 71 1019.3
20210514204715 79 112 9.0 15.0 0.00 0.00 0.00 72 1019.4
20210514204212 79 103 9.0 15.0 0.00 0.00 0.00 72 1019.6
20210514203712 79 123 9.0 15.0 0.00 0.00 0.00 72 1019.6
20210514203154 79 78 10.0 15.0 0.00 0.00 0.00 72 1019.7
20210514202653 79 126 10.0 15.0 0.00 0.00 0.00 71 1019.7
20210514202133 79 128 7.0 15.0 0.00 0.00 0.00 70 1019.8
20210514201617 80 96 6.0 13.0 0.00 0.00 0.00 69 1019.7
20210514201119 80 91 7.0 15.0 0.00 0.00 0.00 68 1019.7
20210514200603 82 110 7.0 15.0 0.00 0.00 0.00 67 1019.7
20210514200059 81 82 7.0 17.0 0.00 0.00 0.00 69 1019.7
20210514195557 81 131 8.0 17.0 0.00 0.00 0.00 69 1019.8
20210514195057 80 92 8.0 14.0 0.00 0.00 0.00 70 1019.9
20210514194557 80 112 6.0 14.0 0.00 0.00 0.00 71 1020.0
20210514194056 80 58 7.0 16.0 0.00 0.00 0.00 71 1020.1
20210514193532 80 57 7.0 16.0 0.00 0.00 0.00 70 1020.1
20210514193033 80 103 5.0 11.0 0.00 0.00 0.00 69 1020.1
20210514192511 80 113 6.0 11.0 0.00 0.00 0.00 70 1020.2
20210514191952 79 136 7.0 14.0 0.00 0.00 0.00 69 1020.3
20210514191452 80 119 7.0 14.0 0.00 0.00 0.00 68 1020.4
20210514190923 80 96 6.0 12.0 0.00 0.00 0.00 69 1020.4
20210514190420 80 46 5.0 12.0 0.00 0.00 0.00 68 1020.3
20210514185917 80 57 5.0 10.0 0.00 0.00 0.00 69 1020.4
20210514185351 80 65 6.0 11.0 0.00 0.00 0.00 68 1020.5
20210514184847 80 74 6.0 11.0 0.00 0.00 0.00 68 1020.7
20210514184318 80 44 6.0 12.0 0.00 0.00 0.00 67 1020.7
20210514183815 81 44 5.0 12.0 0.00 0.00 0.00 67 1020.7
20210514183308 81 78 5.0 10.0 0.00 0.00 0.00 67 1020.8
20210514182744 80 72 5.0 9.0 0.00 0.00 0.00 67 1020.8
20210514182217 80 49 5.0 10.0 0.00 0.00 0.00 68 1020.8
20210514181653 80 53 5.0 10.0 0.00 0.00 0.00 69 1020.8
20210514181125 79 25 6.0 11.0 0.00 0.00 0.00 70 1020.9
20210514180559 79 102 6.0 11.0 0.00 0.00 0.00 68 1021.0
20210514180037 79 97 6.0 11.0 0.00 0.00 0.00 68 1021.0
20210514175507 79 57 5.0 11.0 0.00 0.00 0.00 71 1021.1
20210514175005 79 103 5.0 11.0 0.00 0.00 0.00 71 1021.1
20210514174437 79 90 4.0 9.0 0.00 0.00 0.00 71 1021.2
20210514173937 78 96 5.0 12.0 0.00 0.00 0.00 72 1021.2
20210514173415 78 57 6.0 12.0 0.00 0.00 0.00 72 1021.3
20210514172918 78 124 6.0 11.0 0.00 0.00 0.00 71 1021.3
20210514172415 78 106 6.0 8.0 0.00 0.00 0.00 73 1021.3
20210514171916 78 74 6.0 8.0 0.00 0.00 0.00 72 1021.4
20210514171455 78 87 6.0 12.0 0.00 0.00 0.00 72 1021.5
20210514170953 78 111 5.0 12.0 0.00 0.00 0.00 71 1021.4
20210514170426 78 51 4.0 9.0 0.00 0.00 0.00 72 1021.4
20210514165923 78 77 6.0 9.0 0.00 0.00 0.00 70 1021.4
20210514165357 78 88 6.0 13.0 0.00 0.00 0.00 70 1021.4
20210514164853 79 72 6.0 12.0 0.00 0.00 0.00 70 1021.5
20210514164327 79 72 6.0 12.0 0.00 0.00 0.00 71 1021.5
20210514163824 78 130 7.0 12.0 0.00 0.00 0.00 71 1021.6
20210514163258 77 117 7.0 12.0 0.00 0.00 0.00 74 1021.6
20210514162752 77 82 7.0 14.0 0.00 0.00 0.00 73 1021.6
20210514162226 77 63 6.0 14.0 0.00 0.00 0.00 72 1021.6
20210514161727 77 114 5.0 10.0 0.00 0.00 0.00 74 1021.6
20210514161151 77 103 5.0 10.0 0.00 0.00 0.00 74 1021.6
20210514160647 77 74 5.0 11.0 0.00 0.00 0.00 74 1021.6
20210514160121 77 122 7.0 12.0 0.00 0.00 0.00 74 1021.5
20210514155617 77 88 6.0 12.0 0.00 0.00 0.00 73 1021.6
20210514155051 77 107 4.0 10.0 0.00 0.00 0.00 73 1021.7
20210514154524 78 94 5.0 10.0 0.00 0.00 0.00 72 1021.6
20210514153959 77 79 5.0 10.0 0.00 0.00 0.00 72 1021.7
20210514153455 77 53 5.0 13.0 0.00 0.00 0.00 73 1021.6
20210514152930 77 101 6.0 13.0 0.00 0.00 0.00 72 1021.7
20210514152424 76 81 5.0 11.0 0.00 0.00 0.00 71 1021.7
20210514151855 76 56 6.0 11.0 0.00 0.00 0.00 74 1021.8
20210514151330 76 72 6.0 11.0 0.00 0.00 0.00 73 1021.7
20210514150805 75 45 6.0 11.0 0.00 0.00 0.00 74 1021.8
20210514150306 75 46 6.0 12.0 0.00 0.00 0.00 74 1021.7
20210514145733 75 56 6.0 12.0 0.00 0.00 0.00 74 1021.8
20210514145210 75 76 6.0 10.0 0.00 0.00 0.00 76 1021.9
20210514144706 74 57 6.0 10.0 0.00 0.00 0.00 76 1021.8
20210514144204 74 81 5.0 11.0 0.00 0.00 0.00 76 1021.8
20210514143700 74 90 6.0 12.0 0.00 0.00 0.00 78 1021.8
20210514143134 74 43 5.0 12.0 0.00 0.00 0.00 76 1021.9
20210514142609 73 42 5.0 11.0 0.00 0.00 0.00 79 1021.9
20210514142043 73 43 6.0 11.0 0.00 0.00 0.00 79 1021.9
20210514141541 73 89 6.0 15.0 0.00 0.00 0.00 79 1021.8
20210514141014 73 36 6.0 15.0 0.00 0.00 0.00 78 1021.8
20210514140511 72 49 7.0 14.0 0.00 0.00 0.00 79 1021.9
20210514135945 72 66 6.0 14.0 0.00 0.00 0.00 78 1021.9
20210514135441 72 31 5.0 13.0 0.00 0.00 0.00 79 1022.0
20210514134915 71 40 4.0 8.0 0.00 0.00 0.00 81 1021.9
20210514134352 71 0 3.0 8.0 0.00 0.00 0.00 81 1021.9
20210514133831 71 46 2.0 6.0 0.00 0.00 0.00 83 1021.8
20210514133330 70 38 2.0 6.0 0.00 0.00 0.00 83 1021.8
20210514132812 70 37 2.0 6.0 0.00 0.00 0.00 84 1021.8
20210514132312 70 38 3.0 6.0 0.00 0.00 0.00 84 1021.6
20210514131757 70 38 3.0 6.0 0.00 0.00 0.00 84 1021.6
20210514131235 70 26 3.0 6.0 0.00 0.00 0.00 84 1021.6
20210514130736 69 38 3.0 6.0 0.00 0.00 0.00 85 1021.5
20210514130214 69 46 2.0 5.0 0.00 0.00 0.00 86 1021.4
20210514125715 69 37 2.0 5.0 0.00 0.00 0.00 87 1021.4
20210514125150 68 17 3.0 5.0 0.00 0.00 0.00 88 1021.4
20210514124652 67 9 3.0 5.0 0.00 0.00 0.00 88 1021.3
20210514124135 67 5 3.0 5.0 0.00 0.00 0.00 88 1021.2
20210514123623 67 5 3.0 7.0 0.00 0.00 0.00 89 1021.2
20210514123120 67 0 3.0 7.0 0.00 0.00 0.00 89 1021.3
20210514122620 67 5 3.0 6.0 0.00 0.00 0.00 89 1021.2
20210514122116 66 15 3.0 6.0 0.00 0.00 0.00 90 1021.2
20210514121616 66 11 3.0 7.0 0.00 0.00 0.00 90 1021.2
20210514121116 66 355 3.0 7.0 0.00 0.00 0.00 90 1021.1
20210514120616 66 9 3.0 5.0 0.00 0.00 0.00 90 1021.0
20210514120051 66 5 2.0 4.0 0.00 0.00 0.00 90 1021.0
20210514115527 66 9 2.0 4.0 0.00 0.00 0.00 90 1021.0
20210514115004 66 10 2.0 4.0 0.00 0.00 0.00 90 1021.0
20210514114440 66 11 2.0 5.0 0.00 0.00 0.00 89 1021.0
20210514113941 66 11 2.0 5.0 0.00 0.00 0.00 89 1021.0
20210514113440 66 11 2.0 4.0 0.00 0.00 0.00 89 1020.9
20210514112916 67 9 2.0 4.0 0.00 0.00 0.00 89 1020.8
20210514112352 67 9 3.0 5.0 0.00 0.00 0.00 89 1020.7
20210514111823 66 5 3.0 5.0 0.00 0.00 0.00 89 1020.8
20210514111257 66 0 2.0 5.0 0.00 0.00 0.00 89 1020.8
20210514110731 66 5 3.0 5.0 0.00 0.00 0.00 89 1020.7
20210514110204 66 9 3.0 5.0 0.00 0.00 0.00 89 1020.8
20210514105703 66 9 3.0 5.0 0.00 0.00 0.00 89 1020.8
20210514105158 67 11 3.0 4.0 0.00 0.00 0.00 89 1020.7
20210514104656 67 11 3.0 4.0 0.00 0.00 0.00 89 1020.6
20210514104129 67 12 3.0 5.0 0.00 0.00 0.00 88 1020.5
20210514103601 67 14 3.0 5.0 0.00 0.00 0.00 88 1020.7
20210514103036 67 11 3.0 5.0 0.00 0.00 0.00 88 1020.6
20210514102533 67 5 2.0 4.0 0.00 0.00 0.00 88 1020.6
20210514102029 67 5 3.0 5.0 0.00 0.00 0.00 88 1020.6
20210514101504 67 0 3.0 5.0 0.00 0.00 0.00 88 1020.6
20210514101000 67 9 2.0 4.0 0.00 0.00 0.00 89 1020.6
20210514100448 67 12 2.0 6.0 0.00 0.00 0.00 89 1020.6
20210514095950 67 13 2.0 6.0 0.00 0.00 0.00 89 1020.6
20210514095423 67 0 0.0 5.0 0.00 0.00 0.00 89 1020.6
20210514094920 66 15 0.0 0.0 0.00 0.00 0.00 89 1020.6
20210514094418 66 11 0.0 0.0 0.00 0.00 0.00 90 1020.6
20210514093914 66 0 0.0 0.0 0.00 0.00 0.00 90 1020.6
20210514093348 66 0 0.0 0.0 0.00 0.00 0.00 90 1020.4
20210514092845 66 0 0.0 0.0 0.00 0.00 0.00 90 1020.5
20210514092318 66 5 0.0 0.0 0.00 0.00 0.00 90 1020.5
20210514091750 66 5 0.0 0.0 0.00 0.00 0.00 90 1020.5
20210514091243 66 5 0.0 0.0 0.00 0.00 0.00 90 1020.5
20210514090739 66 5 0.0 0.0 0.00 0.00 0.00 90 1020.4